Вернуться в каталог

COSMOS 1855

АктивенВоенныеLEO
NORAD 18116·PAYLOAD·🇷🇺 Russia

Запущен Jun 16, 1987 с Plesetsk Cosmodrome

Loading…

Ближайшие Пролёты (ближайшие 24 часа)

TLE

СвежийSource: Space-Track

Эпоха: Sep 14, 2026, 11:20 UTC

1 18116U 87051D   26257.47257130  .00000009  00000-0  16126-3 0  9997
2 18116  74.0050 158.8240 0019544 181.5049 289.5866 12.50734032791978

Отслеживайте COSMOS 1855 в реальном времени с AllMySat

Download on the App Store